Location: Biella
(45.5670°N, 8.0500°E)
Time: 09:30:53
(UTC+02:00)

ISS - Visible Passes

Search period start: 08 May 2021 00:00
Search period end: 18 May 2021 00:00
Orbit: 418 x 421 km, 51.6° (Epoch: 08 May)

Date Brightness Start Highest point End Pass type
(mag) Time Alt. Az. Time Alt. Az. Time Alt. Az.
08 May -2.3 02:49:25 37° NNE 02:49:25 37° NNE 02:51:52 10° NE visible
08 May -1.8 04:22:55 10° WNW 04:25:54 28° N 04:28:53 10° ENE visible
09 May -1.2 02:03:26 18° NE 02:03:26 18° NE 02:04:27 10° ENE visible
09 May -1.8 03:36:22 17° NW 03:38:19 29° N 03:41:19 10° ENE visible
09 May -2.2 05:12:31 10° NW 05:15:42 36° NNE 05:18:52 10° E visible
10 May -2.1 02:50:23 31° NNW 02:50:44 31° N 02:53:49 10° NE visible
10 May -1.9 04:25:04 10° NW 04:28:09 31° N 04:31:13 10° ENE visible
11 May -1.7 02:04:21 27° NNE 02:04:21 27° NNE 02:06:22 10° NE visible
11 May -1.7 03:37:34 10° WNW 03:40:34 28° N 03:43:34 10° ENE visible
11 May -3.2 05:14:26 10° WNW 05:17:48 63° NNE 05:21:10 10° ESE visible
12 May -1.0 01:18:16 15° NE 01:18:16 15° NE 01:18:56 10° NE visible
12 May -1.7 02:51:12 18° NW 02:52:59 28° N 02:55:57 10° ENE visible
12 May -2.6 04:27:02 10° NW 04:30:19 46° NNE 04:33:35 10° E visible
13 May -1.8 02:05:02 28° NNW 02:05:23 28° N 02:08:23 10° ENE visible
13 May -2.2 03:39:36 10° NW 03:42:47 36° NNE 03:45:57 10° E visible
13 May -3.7 05:16:24 10° WNW 05:19:43 57° SW 05:23:03 10° SE visible
14 May -1.7 01:18:39 27° NNE 01:18:39 27° NNE 01:20:53 10° NE visible
14 May -1.9 02:52:09 10° NW 02:55:13 31° N 02:58:17 10° ENE visible
14 May -3.8 04:28:56 10° WNW 04:32:19 88° SSW 04:35:42 10° ESE visible
14 May -3.8 22:50:01 10° SW 22:53:19 56° SE 22:55:40 17° ENE visible
15 May -2.2 00:27:05 10° W 00:30:15 37° NNW 00:33:26 10° NE visible
15 May -1.7 02:04:38 10° WNW 02:07:38 28° N 02:10:38 10° ENE visible
15 May -3.3 03:41:30 10° WNW 03:44:52 63° NNE 03:48:13 10° ESE visible
15 May -2.5 05:18:43 10° W 05:21:27 23° SW 05:24:10 10° SSE visible
15 May -3.2 22:02:51 10° SSW 22:05:57 35° SE 22:09:04 10° ENE visible
15 May -2.7 23:39:27 10° W 23:42:43 46° NNW 23:46:00 10° NE visible
16 May -1.6 01:17:05 10° WNW 01:20:03 28° N 01:23:01 10° ENE visible
16 May -2.7 02:54:05 10° NW 02:57:22 46° NNE 03:00:39 10° E visible
16 May -3.2 04:31:00 10° WNW 04:34:08 36° SW 04:37:15 10° SSE visible
16 May -3.3 22:51:53 10° WSW 22:55:13 64° NNW 22:58:35 10° ENE visible
17 May -1.7 00:29:28 10° WNW 00:32:27 28° N 00:35:27 10° ENE visible
17 May -2.2 02:06:39 10° NW 02:09:50 37° NNE 02:13:00 10° E visible
17 May -3.8 03:43:27 10° WNW 03:46:46 57° SW 03:50:05 10° SE visible
17 May -3.8 22:04:24 10° WSW 22:07:46 88° SSE 22:11:08 10° ENE visible
17 May -1.8 23:41:48 10° WNW 23:44:51 31° N 23:47:56 10° NE visible
